     2              OBSERVATION DATA    GPS                 RINEX VERSION / TYPE
teqc 1997Jul24 19970814                                     PGM / RUN BY / DATE
                                                            COMMENT
Original Marker Name: SNAP                                  COMMENT
Campaign Name: HPGN 1991                                    COMMENT
4-Character Station Name: SNAP                              COMMENT
6-Character Antenna Code: TRMSST                            COMMENT
Vertical Measurement Point: TGP                             COMMENT
Vertical Offset to Rinex Ref. Point: 0.0629                 COMMENT
Radial Measurement Point: OGP                               COMMENT
Radial Offset to Rinex Ref. Point: 0.2413                   COMMENT
Antenna Height from Field Measurement: 1.5183 m             COMMENT
Original XYZ: 0.0000 0.0000 0.0000                          COMMENT
New XYZ position is based on association with SCEC monument COMMENT
E1E9H7D4+0011. Position of that monument is believed to be  COMMENT
valid to within 1 m horizontally; vertical accuracy         COMMENT
should be no worse than 3-times this value.                 COMMENT
                                                            COMMENT
Revised Rinex header created by UCSD GPS archive for        COMMENT
GSAC on 02-Jun-1999 (1999:153) 22:16:06 GMT                 COMMENT
For assistance contact dagnew@ucsd.edu or hjohnson@ucsd.edu COMMENT
                                                            COMMENT
SANTA PAULA NCMN 1981                                       MARKER NAME
unknown NATIONAL GEODETIC SURVEY                            OBSERVER / AGENCY
485 TRIMBLE 4000 SST NP 4.30 / SP 4.20                      REC # / TYPE / VERS
16 TR 4000SST L1/L2 GEO                                     ANT # / TYPE
 -2554477.0000 -4608627.0000  3582138.0000                  APPROX POSITION XYZ
        1.4361        0.0000        0.0000                  ANTENNA: DELTA H/E/N
     1     1     0                                          WAVELENGTH FACT L1/2
     3    C1    L1    L2                                    # / TYPES OF OBSERV
     0                                                      INTERVAL
  1991     4    29    23    37   45.000000                  TIME OF FIRST OBS
  1991     4    29    23    44   15.000000                  TIME OF LAST OBS
     0                                                      # OF SATELLITES
                                                            END OF HEADER
 91  4 29 23 37 45.0000000  0  4G 2G 6G13G15
  21340429.9614      26765.60447        -0.01373
  20594856.9924         -0.24557        -0.18673
  20824067.516          -0.54617        -0.39332
  24102598.6954         -0.58255        -0.22071
 91  4 29 23 38  0.0000000  0  4G 2G 6G13G15
  21340937.3444      29430.79447      2076.74863
  20592738.5084     -11126.49947     -8670.00163
  20816146.773      -41623.334 7    -32433.71522
  24103763.4534       6143.44945      4787.33761
 91  4 29 23 38 15.0000000  0  4G 2G 6G13G15
  21341451.0704      32134.31047      4183.37063
  20590641.7034     -22143.03347    -17254.32063
  20808251.953      -83114.246 7    -64764.28222
  24104957.516       12414.350 5      9673.72721
 91  4 29 23 38 30.0000000  0  4G 2G 6G13G15
  21341974.4144      34881.32147      6323.89663
  20588569.3444     -33044.71347    -25749.13863
  20800381.242     -124468.235 7    -96988.15022
  24106176.523       18816.823 5     14662.65721
 91  4 29 23 38 45.0000000  0  4G 2G 6G13G15
  21342507.5164      37676.30947      8501.80363
  20586515.1254     -43826.65447    -34150.66163
  20792539.508     -165680.543 7   -129101.61922
  24107420.6884      25355.54945     19757.75461
 91  4 29 23 39  0.0000000  0  4G 2G 6G13G15
  21343047.344       40516.567 7     10714.97723
  20584485.8524     -54491.48647    -42460.92263
  20784722.992     -206753.725 7   -161106.68022
  24108694.0234      32027.33045     24956.54561
 91  4 29 23 39 15.0000000  0  4G 2G 6G13G15
  21343595.9144      43403.94547     12964.86963
  20582482.6644     -65037.21747    -50678.37563
  20776935.211     -247686.012 7   -193001.95022
  24109984.8134      38834.06345     30260.48961
 91  4 29 23 39 30.0000000  0  3G 2G 6G13
  21344154.3284      46333.96147     15247.99363
  20580494.7344     -75468.08647    -58806.32562
  20769172.117     -288481.722 7   -224790.79922
 91  4 29 23 39 45.0000000  0  3G 2G 6G13
  21344718.9534      49307.54247     17565.05963
  20578531.9064     -85782.86947    -66843.82363
  20761434.773     -329139.591 7   -256472.23522
 91  4 29 23 40  0.0000000  0  3G 2G 6G13
  21345294.7664      52328.06647     19918.70463
  20576591.0164     -95978.14247    -74788.18562
  20753725.016     -369656.212 7   -288043.60822
 91  4 29 23 40 15.0000000  0  3G 2G 6G13
  21345879.0394      55397.16147     22310.20263
  20574674.5394    -106052.19747    -82638.10163
  20746041.266     -410029.936 7   -319503.63622
 91  4 29 23 40 30.0000000  0  3G 2G 6G13
  21346470.500       58512.584 7     24737.78023
  20572780.9454    -116007.11947    -90395.18662
  20738386.305     -450262.940 7   -350854.01822
 91  4 29 23 40 45.0000000  0  3G 2G 6G13
  21347072.0164      61672.75347     27200.24363
  20570908.6564    -125844.32747    -98060.54863
  20730755.594     -490356.566 7   -382095.78722
 91  4 29 23 41  0.0000000  0  3G 2G 6G13
  21347682.633       64880.264 7     29699.58723
  20569059.6174    -135560.82347   -105631.85463
  20723153.109     -530308.011 7   -413226.76822
 91  4 29 23 41 15.0000000  0  3G 2G 6G13
  21348302.7114      68134.94447     32235.69163
  20567233.6484    -145156.94447   -113109.35863
  20715578.172     -570117.484 7   -444247.12122
 91  4 29 23 41 30.0000000  0  3G 2G 6G13
  21348931.141       71434.302 8     34806.60323
  20565430.3674    -154634.83447   -120494.73062
  20708029.813     -609787.387 7   -475158.72022
 91  4 29 23 41 45.0000000  0  3G 2G 6G13
  21349568.906       74784.462 8     37417.09823
  20563649.0084    -163988.27747   -127783.12762
  20700507.852     -649311.208 7   -505956.48522
 91  4 29 23 42  0.0000000  0  3G 2G 6G13
  21350214.016       78177.645 7     40061.12823
  20561892.7034    -173224.90547   -134980.50562
  20693013.281     -688696.765 7   -536646.51222
 91  4 29 23 42 15.0000000  0  3G 2G 6G13
  21350867.2734      81619.69347     42743.23163
  20560158.7664    -182338.73347   -142082.19662
  20685546.602     -727938.092 7   -567224.15522
 91  4 29 23 42 30.0000000  0  3G 2G 6G13
  21351533.0004      85112.14847     45464.62463
  20558447.2114    -191327.93947   -149086.77562
  20678106.500     -767033.738 7   -597688.27522
 91  4 29 23 42 45.0000000  0  3G 2G 6G13
  21352207.992       88653.706 8     48224.26523
  20556760.7034    -200193.93647   -155995.35262
  20670693.805     -805984.871 7   -628039.79522
 91  4 29 23 43  0.0000000  0  3G 2G 6G13
  21352889.445       92238.048 7     51017.24023
  20555094.7734    -208942.69647   -162812.56862
  20663309.008     -844797.727 7   -658283.56722
 91  4 29 23 43 15.0000000  0  3G 2G 6G13
  21353581.563       95875.829 7     53851.86023
  20553455.023     -217563.504 7   -169530.09522
  20655950.820     -883461.390 7   -688411.08422
 91  4 29 23 43 30.0000000  0  3G 2G 6G13
  21354282.820       99564.200 7     56725.89923
  20551837.969     -226059.095 7   -176150.04822
  20648622.055     -921978.774 7   -718424.61422
 91  4 29 23 43 45.0000000  0  3G 2G 6G13
  21354992.9614     103297.28147     59634.78363
  20550245.445     -234435.140 7   -182676.85422
  20641317.7734    -960355.79747   -748328.77662
 91  4 29 23 44  0.0000000  0  3G 2G 6G13
  21355714.266      107079.584 7     62582.02123
  20548674.4694    -242687.19647   -189107.03662
  20634043.680     -998587.753 7   -778119.90022
